Location: Camerons Lookout
(40.9833°S, 175.9333°E)
Time: 21:33:56
(UTC+00:00)

BREEZE-M DEB (TANK) - Pass Details

Date: 14 January 2026
Orbit: 348 x 15944 km, 49.4° (Epoch: 17 February)

Event Time Altitude Azimuth Distance (km) Brightness Sun altitude
Exits shadow 10:04:43 - 324° (NW) 2,563 5.5 -19.7°
Reaches altitude 10° 10:05:26 10° 326° (NW) 2,271 5.2 -19.8°
Maximum altitude 10:10:11 63° 48° (NE) 1,537 4.2 -20.3°
Drops below altitude 10° 10:30:02 10° 122° (ESE) 8,620 8.4 -22.2°
Sets 10:43:27 0° 122° (ESE) 12,549 9.3 -23.4°
